STARLINK-1475, 45739

Orbit data source: Space-Track

STARLINK-1475, 45739 is a payload satellite owned by SpaceX/Seattle (US) in LEO that was launched on Sat, 13 Jun 2020 UTC via an FALCON 9 launch vehicle from the Air Force Eastern Test Range (AFETR). Payload-class satellites include a variety of spacecraft equipped with specific instruments for various scientific and technological missions. These include communications satellites like Starlink; space stations such as the ISS; scientific satellites like the Hubble; Earth observation satellites from companies like Planet Labs, Umbra, and HawkEye 360; GPS; miniature CubeSats for education and research; and military/defense satellites.

Loading next visibility...
Identifier
45739, 2020-038K
Orbit
LEO
Last TLE update
16 hours ago
Origin
Manufacturer
SpaceX/Seattle
Mission
Partially operational Commercial Communications
Bus & Motor
STARLINK, Unknown motor
Mass
260 kg wet, ~248 kg dry
Launch date (UTC)
2020-06-13 (5 years ago)
Launch vehicle
FALCON 9
Launch site
Air Force Eastern Test Range (AFETR)
Object type
Payload
Rocket body
Debris
Shape & HBR
Box + 1 Pan, 8.86 m
Radar Cross Section
13.562 m², Large (>1 m²)

Expand to show TLE details & history

TLE from 16 hours ago
0 STARLINK-1475
1 45739U 20038K   25128.57632236  .00015533  00000-0  46681-3 0  9998
2 45739  53.0609  84.9251 0002931  16.7567 343.3531 15.34606982271353
Epoch: 2025-05-08T13:49Z
Definitive object data (Epoch: 2025-05-08T13:49:54.251Z)
Latitude
-0.00002°
Longitude
10.8042°
Altitude
461.058 km
Speed
7.638 km/s
True Right ascension
05h 39m 42s
True Declination
0° 00' 00"
Sunlit
Object was in daylight at TLE epoch
Visualization TLE readout
Latitude
52.88148°
Longitude
106.55236°
Altitude
468.024 km
Speed
7.639 km/s
Apparent Right ascension
05h 51m 32s
Apparent Declination
29° 21' 60"
Sunlit
Object is in daylight
Visualization observer readout
Local Sidereal Time
14:01:15
Azimuth
312.583° NW
Elevation
-2.509°
Doppler factor
1
Orbital elements
Apogee altitude
464.366 km
Perigee altitude
460.356 km
Semi-major axis
6,840.498 km
Eccentricity
0.0002931
Inclination
53.0609°
RAAN
84.9251°
Arg. of periapsis
16.7567°
True anomaly
343.34347°
Mean anomaly
343.3531°
Eccentric anomaly
343.34829°
Mean motion
3.83629 °/min
BSTAR
0.00046681
Orbital period
93.84 mins
Loading maneuver chart data...
Loading SW <> Apogee altitude chart data...

STARLINK-1475 Visibility forecast

Observer location: undefined°, undefined°

Span
Click to sort rows by Start time (UTC) header in descending order
Start Az.
Max El. time (UTC)
Max El. Az.
Max El.
End time (UTC)
End Az.
5 mins2025-05-09 05:56:31.248Z330.816° NNW2025-05-09 05:58:31.248Z16.124° NNE30.458°2025-05-09 06:01:31.248Z96.753° ESE
4 mins2025-05-09 07:34:31.248Z273.324° WNW2025-05-09 07:36:31.248Z225.789° WSW23.303°2025-05-09 07:38:31.248Z181.597° SSW
5 mins2025-05-09 22:49:31.248Z183.058° SSW2025-05-09 22:51:31.248Z131.356° SE27.082°2025-05-09 22:54:31.248Z70.362° E
4 mins2025-05-10 00:27:31.248Z283.225° WNW2025-05-10 00:29:31.248Z344.959° N27.298°2025-05-10 00:31:31.248Z27.292° NE
4 mins2025-05-10 05:23:31.248Z345.75° N2025-05-10 05:25:31.248Z45.14° ENE26.59°2025-05-10 05:27:31.248Z87.475° E
|